Location: Del Oro Observatory
(38.3044°N, 104.8119°W)
Time: 05:58:05
(UTC-06:00)

Cosmos 1602 Rocket - Visible Passes

Search period start: 28 March 2017 00:00
Search period end: 07 April 2017 00:00
Orbit: 605 x 633 km, 82.5° (Epoch: 26 March)

Date Brightness Start Highest point End Pass type
(mag) Time Alt. Az. Time Alt. Az. Time Alt. Az.
28 Mar 7.1 05:10:25 10° E 05:11:26 11° E 05:12:26 10° ENE visible
29 Mar 6.4 05:25:10 10° SE 05:28:26 20° E 05:31:44 10° NE visible
30 Mar 5.2 05:41:27 10° SSE 05:45:33 38° E 05:49:41 10° NNE visible
31 Mar 3.8 05:58:19 10° S 06:02:44 76° E 06:07:13 10° N visible
01 Apr 6.8 04:41:20 10° ESE 04:42:45 11° E 04:44:10 10° ENE visible
01 Apr 3.7 06:15:41 10° SSW 06:20:01 55° W 06:24:26 10° N visible
02 Apr 6.1 04:56:24 10° SE 04:59:46 22° E 05:03:10 10° NE visible
03 Apr 5.0 05:12:43 10° SSE 05:16:52 40° E 05:21:04 10° NNE visible
04 Apr 3.7 05:29:38 10° S 05:34:04 80° E 05:38:34 10° N visible
05 Apr 6.6 04:12:22 10° ESE 04:14:04 12° E 04:15:47 10° ENE visible
05 Apr 3.8 05:47:02 10° SSW 05:51:22 52° W 05:55:46 10° N visible
06 Apr 5.9 04:27:37 10° SE 04:31:05 23° E 04:34:35 10° NE visible
06 Apr 4.6 06:04:56 10° SW 06:08:46 28° WNW 06:12:38 10° NNW visible
